Terug naar catalogus

CZ-4 DEB

ActiefSSO
NORAD 26184·DEBRIS·🇨🇳 China

Gelanceerd Oct 14, 1999 vanaf Taiyuan Satellite Launch Center

Loading…

Volgende Passages (komende 24 uur)

TLE

VersSource: Space-Track

Epoch: Sep 14, 2026, 09:45 UTC

1 26184U 99057BW  26257.40630298  .00000270  00000-0  98781-4 0  9991
2 26184  98.7230 313.4522 0104992  36.6688 324.1624 14.37926143386463

Volg CZ-4 DEB in realtime met AllMySat

Download on the App Store